| time (UTC) | temp F | wind direction | speed MPH | gust MPH | rain 1hr in | rain 24hr in | rain mn in | humidity % | barometer mb |
| 20260831101051 | 76 | 215 | 7.0 | 11.0 | 0.00 | 0.00 | 0.00 | 68 | 1012.2 |
| 20260831100552 | 76 | 162 | 6.0 | 13.0 | 0.00 | 0.00 | 0.00 | 68 | 1012.2 |
| 20260831100049 | 76 | 163 | 6.0 | 13.0 | 0.00 | 0.00 | 0.00 | 67 | 1012.2 |
| 20260831095553 | 76 | 180 | 4.0 | 9.0 | 0.00 | 0.00 | 0.00 | 68 | 1012.1 |
| 20260831095049 | 76 | 215 | 3.0 | 13.0 | 0.00 | 0.00 | 0.00 | 68 | 1012.2 |
| 20260831094549 | 76 | 150 | 5.0 | 13.0 | 0.00 | 0.00 | 0.00 | 67 | 1012.2 |
| 20260831094053 | 76 | 199 | 3.0 | 12.0 | 0.00 | 0.00 | 0.00 | 67 | 1012.2 |
| 20260831093547 | 76 | 163 | 5.0 | 12.0 | 0.00 | 0.00 | 0.00 | 67 | 1012.2 |
| 20260831093047 | 76 | 190 | 1.0 | 13.0 | 0.00 | 0.00 | 0.00 | 67 | 1012.2 |
| 20260831092547 | 75 | 205 | 2.0 | 13.0 | 0.00 | 0.00 | 0.00 | 67 | 1012.3 |
| 20260831092046 | 75 | 217 | 2.0 | 12.0 | 0.00 | 0.00 | 0.00 | 67 | 1012.3 |
| 20260831091557 | 75 | 209 | 5.0 | 12.0 | 0.00 | 0.00 | 0.00 | 66 | 1012.3 |
| 20260831091047 | 75 | 232 | 5.0 | 16.0 | 0.00 | 0.00 | 0.00 | 66 | 1012.3 |
| 20260831090548 | 76 | 222 | 5.0 | 16.0 | 0.00 | 0.00 | 0.00 | 65 | 1012.3 |
| 20260831090046 | 76 | 208 | 6.0 | 10.0 | 0.00 | 0.00 | 0.00 | 65 | 1012.3 |
| 20260831085548 | 76 | 233 | 3.0 | 10.0 | 0.00 | 0.00 | 0.00 | 66 | 1012.3 |
| 20260831085044 | 76 | 214 | 6.0 | 10.0 | 0.00 | 0.00 | 0.00 | 67 | 1012.3 |
| 20260831084544 | 75 | 219 | 6.0 | 10.0 | 0.00 | 0.00 | 0.00 | 67 | 1012.3 |
| 20260831084042 | 75 | 210 | 5.0 | 10.0 | 0.00 | 0.00 | 0.00 | 69 | 1012.3 |
| 20260831083540 | 76 | 360 | 1.0 | 17.0 | 0.00 | 0.00 | 0.00 | 70 | 1012.3 |
| 20260831083040 | 76 | 200 | 6.0 | 17.0 | 0.00 | 0.00 | 0.00 | 68 | 1012.2 |
| 20260831082537 | 75 | 229 | 5.0 | 11.0 | 0.00 | 0.00 | 0.00 | 69 | 1012.3 |
| 20260831082037 | 75 | 184 | 7.0 | 11.0 | 0.00 | 0.00 | 0.00 | 69 | 1012.2 |
| 20260831081540 | 75 | 155 | 6.0 | 10.0 | 0.00 | 0.00 | 0.00 | 70 | 1012.3 |
| 20260831081038 | 75 | 181 | 6.0 | 10.0 | 0.00 | 0.00 | 0.00 | 69 | 1012.2 |
| 20260831080536 | 74 | 227 | 4.0 | 9.0 | 0.00 | 0.00 | 0.00 | 71 | 1012.2 |
| 20260831080057 | 74 | 191 | 4.0 | 10.0 | 0.00 | 0.00 | 0.00 | 71 | 1012.2 |
| 20260831075533 | 74 | 188 | 4.0 | 10.0 | 0.00 | 0.00 | 0.00 | 71 | 1012.2 |
| 20260831075034 | 73 | 198 | 6.0 | 10.0 | 0.00 | 0.00 | 0.00 | 71 | 1012.2 |
| 20260831074531 | 73 | 175 | 5.0 | 9.0 | 0.00 | 0.00 | 0.00 | 71 | 1012.2 |
| 20260831074031 | 73 | 186 | 4.0 | 9.0 | 0.00 | 0.00 | 0.00 | 71 | 1012.3 |
| 20260831073532 | 73 | 216 | 2.0 | 6.0 | 0.00 | 0.00 | 0.00 | 73 | 1012.3 |
| 20260831073130 | 73 | 176 | 0.0 | 6.0 | 0.00 | 0.00 | 0.00 | 73 | 1012.3 |
| 20260831072531 | 73 | 184 | 3.0 | 6.0 | 0.00 | 0.00 | 0.00 | 72 | 1012.3 |
| 20260831072030 | 73 | 169 | 1.0 | 8.0 | 0.00 | 0.00 | 0.00 | 72 | 1012.4 |
| 20260831071528 | 73 | 192 | 1.0 | 6.0 | 0.00 | 0.00 | 0.00 | 72 | 1012.4 |
| 20260831071031 | 73 | 198 | 0.0 | 6.0 | 0.00 | 0.00 | 0.00 | 73 | 1012.4 |
| 20260831070532 | 73 | 198 | 1.0 | 7.0 | 0.00 | 0.00 | 0.00 | 72 | 1012.4 |
| 20260831070029 | 73 | 208 | 4.0 | 9.0 | 0.00 | 0.00 | 0.00 | 73 | 1012.3 |
| 20260831065526 | 72 | 171 | 4.0 | 9.0 | 0.00 | 0.00 | 0.00 | 73 | 1012.4 |
| 20260831065024 | 72 | 139 | 1.0 | 11.0 | 0.00 | 0.00 | 0.00 | 75 | 1012.4 |
| 20260831064523 | 71 | 140 | 4.0 | 10.0 | 0.00 | 0.00 | 0.00 | 74 | 1012.4 |
| 20260831064025 | 71 | 176 | 0.0 | 9.0 | 0.00 | 0.00 | 0.00 | 75 | 1012.5 |
| 20260831063520 | 71 | 166 | 4.0 | 9.0 | 0.00 | 0.00 | 0.00 | 76 | 1012.5 |
| 20260831063027 | 70 | 155 | 0.0 | 0.0 | 0.00 | 0.00 | 0.00 | 79 | 1012.7 |
| 20260831062518 | 69 | 155 | 0.0 | 0.0 | 0.00 | 0.00 | 0.00 | 79 | 1012.7 |
| 20260831062017 | 68 | 155 | 0.0 | 0.0 | 0.00 | 0.00 | 0.00 | 81 | 1012.7 |
| 20260831061516 | 67 | 155 | 0.0 | 0.0 | 0.00 | 0.00 | 0.00 | 83 | 1012.7 |
| 20260831061014 | 67 | 155 | 0.0 | 7.0 | 0.00 | 0.00 | 0.00 | 85 | 1012.8 |
| 20260831060513 | 66 | 153 | 2.0 | 7.0 | 0.00 | 0.00 | 0.00 | 86 | 1012.7 |
| 20260831060012 | 65 | 160 | 3.0 | 7.0 | 0.00 | 0.00 | 0.00 | 87 | 1012.7 |
| 20260831055510 | 64 | 182 | 0.0 | 0.0 | 0.00 | 0.00 | 0.00 | 88 | 1012.7 |
| 20260831055009 | 64 | 191 | 0.0 | 0.0 | 0.00 | 0.00 | 0.00 | 89 | 1012.8 |
| 20260831054513 | 63 | 205 | 0.0 | 0.0 | 0.00 | 0.00 | 0.00 | 90 | 1012.8 |
| 20260831054010 | 63 | 205 | 0.0 | 0.0 | 0.00 | 0.00 | 0.00 | 91 | 1012.8 |
| 20260831053507 | 63 | 205 | 0.0 | 0.0 | 0.00 | 0.00 | 0.00 | 91 | 1012.7 |
| 20260831053007 | 62 | 205 | 0.0 | 0.0 | 0.00 | 0.00 | 0.00 | 92 | 1012.7 |
| 20260831052605 | 62 | 205 | 0.0 | 0.0 | 0.00 | 0.00 | 0.00 | 92 | 1012.7 |
| 20260831052005 | 62 | 205 | 0.0 | 0.0 | 0.00 | 0.00 | 0.00 | 92 | 1012.7 |
| 20260831051505 | 61 | 205 | 0.0 | 0.0 | 0.00 | 0.00 | 0.00 | 92 | 1012.7 |
| 20260831051004 | 61 | 205 | 0.0 | 0.0 | 0.00 | 0.00 | 0.00 | 92 | 1012.8 |
| 20260831050504 | 61 | 205 | 0.0 | 0.0 | 0.00 | 0.00 | 0.00 | 92 | 1012.8 |
| 20260831050004 | 61 | 205 | 0.0 | 0.0 | 0.00 | 0.00 | 0.00 | 92 | 1012.8 |
| 20260831045503 | 60 | 205 | 0.0 | 0.0 | 0.00 | 0.00 | 0.00 | 93 | 1012.9 |
| 20260831045004 | 60 | 205 | 0.0 | 0.0 | 0.00 | 0.00 | 0.00 | 93 | 1012.9 |
| 20260831044502 | 60 | 205 | 0.0 | 0.0 | 0.00 | 0.00 | 0.00 | 93 | 1012.9 |
| 20260831044002 | 60 | 205 | 0.0 | 0.0 | 0.00 | 0.00 | 0.00 | 93 | 1012.9 |
| 20260831043501 | 59 | 205 | 0.0 | 0.0 | 0.00 | 0.00 | 0.00 | 93 | 1012.9 |
| 20260831043100 | 59 | 205 | 0.0 | 0.0 | 0.00 | 0.00 | 0.00 | 93 | 1012.9 |
| 20260831042601 | 59 | 205 | 0.0 | 0.0 | 0.00 | 0.00 | 0.00 | 93 | 1012.9 |
| 20260831042058 | 59 | 205 | 0.0 | 0.0 | 0.00 | 0.00 | 0.00 | 93 | 1012.9 |
| 20260831041608 | 59 | 205 | 0.0 | 0.0 | 0.00 | 0.00 | 0.00 | 93 | 1013.0 |
| 20260831041059 | 59 | 205 | 0.0 | 0.0 | 0.00 | 0.00 | 0.00 | 92 | 1013.0 |
| 20260831040556 | 59 | 205 | 0.0 | 0.0 | 0.00 | 0.00 | 0.00 | 92 | 1012.9 |
| 20260831040058 | 59 | 205 | 0.0 | 0.0 | 0.00 | 0.00 | 0.00 | 92 | 1013.0 |
| 20260831035559 | 59 | 205 | 0.0 | 0.0 | 0.00 | 0.00 | 0.00 | 92 | 1013.0 |
| 20260831035055 | 59 | 205 | 0.0 | 0.0 | 0.00 | 0.00 | 0.00 | 92 | 1012.9 |
| 20260831034603 | 59 | 205 | 0.0 | 0.0 | 0.00 | 0.00 | 0.00 | 92 | 1012.8 |
| 20260831034054 | 59 | 205 | 0.0 | 0.0 | 0.00 | 0.00 | 0.00 | 92 | 1012.8 |
| 20260831033557 | 59 | 205 | 0.0 | 0.0 | 0.00 | 0.00 | 0.00 | 92 | 1012.9 |
| 20260831033054 | 59 | 205 | 0.0 | 0.0 | 0.00 | 0.00 | 0.00 | 92 | 1012.9 |
| 20260831032553 | 59 | 205 | 0.0 | 0.0 | 0.00 | 0.00 | 0.00 | 92 | 1012.9 |
| 20260831032153 | 59 | 205 | 0.0 | 0.0 | 0.00 | 0.00 | 0.00 | 92 | 1012.9 |
| 20260831031553 | 59 | 205 | 0.0 | 0.0 | 0.00 | 0.00 | 0.00 | 92 | 1012.9 |
| 20260831031053 | 59 | 205 | 0.0 | 0.0 | 0.00 | 0.00 | 0.00 | 92 | 1012.9 |
| 20260831030553 | 59 | 205 | 0.0 | 0.0 | 0.00 | 0.00 | 0.00 | 92 | 1012.7 |
| 20260831030059 | 59 | 205 | 0.0 | 0.0 | 0.00 | 0.00 | 0.00 | 92 | 1012.7 |
| 20260831025551 | 59 | 205 | 0.0 | 0.0 | 0.00 | 0.00 | 0.00 | 92 | 1012.8 |
| 20260831025051 | 59 | 205 | 0.0 | 0.0 | 0.00 | 0.00 | 0.00 | 92 | 1012.9 |
| 20260831024551 | 59 | 205 | 0.0 | 0.0 | 0.00 | 0.00 | 0.00 | 92 | 1012.9 |
| 20260831024051 | 59 | 205 | 0.0 | 0.0 | 0.00 | 0.00 | 0.00 | 92 | 1013.0 |
| 20260831023549 | 59 | 205 | 0.0 | 0.0 | 0.00 | 0.00 | 0.00 | 91 | 1013.0 |
| 20260831023049 | 59 | 205 | 0.0 | 0.0 | 0.00 | 0.00 | 0.00 | 91 | 1013.0 |
| 20260831022553 | 60 | 205 | 0.0 | 0.0 | 0.00 | 0.00 | 0.00 | 91 | 1013.0 |
| 20260831022052 | 60 | 205 | 0.0 | 0.0 | 0.00 | 0.00 | 0.00 | 91 | 1013.0 |
| 20260831021549 | 60 | 205 | 0.0 | 0.0 | 0.00 | 0.00 | 0.00 | 91 | 1013.0 |
| 20260831021049 | 60 | 205 | 0.0 | 0.0 | 0.00 | 0.00 | 0.00 | 91 | 1013.1 |
| 20260831020546 | 60 | 205 | 0.0 | 0.0 | 0.00 | 0.00 | 0.00 | 91 | 1013.1 |
| 20260831020046 | 60 | 205 | 0.0 | 0.0 | 0.00 | 0.00 | 0.00 | 91 | 1013.2 |
| 20260831015545 | 60 | 205 | 0.0 | 0.0 | 0.00 | 0.00 | 0.00 | 90 | 1013.2 |
| 20260831015045 | 60 | 205 | 0.0 | 0.0 | 0.00 | 0.00 | 0.00 | 90 | 1013.2 |
| 20260831014545 | 60 | 205 | 0.0 | 0.0 | 0.00 | 0.00 | 0.00 | 90 | 1013.2 |
| 20260831014044 | 60 | 205 | 0.0 | 0.0 | 0.00 | 0.00 | 0.00 | 90 | 1013.3 |
| 20260831013543 | 60 | 205 | 0.0 | 0.0 | 0.00 | 0.00 | 0.00 | 90 | 1013.2 |
| 20260831013050 | 61 | 205 | 0.0 | 0.0 | 0.00 | 0.00 | 0.00 | 90 | 1013.2 |
| 20260831012544 | 61 | 205 | 0.0 | 0.0 | 0.00 | 0.00 | 0.00 | 90 | 1013.2 |
| 20260831012045 | 61 | 205 | 0.0 | 0.0 | 0.00 | 0.00 | 0.00 | 90 | 1013.2 |
| 20260831011641 | 61 | 205 | 0.0 | 0.0 | 0.00 | 0.00 | 0.00 | 90 | 1013.2 |
| 20260831011041 | 61 | 205 | 0.0 | 0.0 | 0.00 | 0.00 | 0.00 | 89 | 1013.3 |
| 20260831010540 | 61 | 205 | 0.0 | 0.0 | 0.00 | 0.00 | 0.00 | 89 | 1013.2 |
| 20260831010100 | 61 | 205 | 0.0 | 0.0 | 0.00 | 0.00 | 0.00 | 89 | 1013.2 |
| 20260831005540 | 61 | 205 | 0.0 | 0.0 | 0.00 | 0.00 | 0.00 | 89 | 1013.3 |
| 20260831005039 | 61 | 205 | 0.0 | 0.0 | 0.00 | 0.00 | 0.00 | 89 | 1013.3 |
| 20260831004538 | 61 | 205 | 0.0 | 0.0 | 0.00 | 0.00 | 0.00 | 89 | 1013.4 |
| 20260831004039 | 62 | 205 | 0.0 | 0.0 | 0.00 | 0.00 | 0.00 | 89 | 1013.4 |
| 20260831003538 | 62 | 205 | 0.0 | 0.0 | 0.00 | 0.00 | 0.00 | 88 | 1013.4 |
| 20260831003037 | 62 | 205 | 0.0 | 0.0 | 0.00 | 0.00 | 0.00 | 88 | 1013.5 |
| 20260831002536 | 62 | 205 | 0.0 | 0.0 | 0.00 | 0.00 | 0.00 | 88 | 1013.5 |
| 20260831002036 | 62 | 205 | 0.0 | 0.0 | 0.00 | 0.00 | 0.00 | 88 | 1013.4 |
| 20260831001540 | 62 | 205 | 0.0 | 0.0 | 0.00 | 0.00 | 0.00 | 88 | 1013.4 |
| 20260831001035 | 62 | 205 | 0.0 | 0.0 | 0.00 | 0.00 | 0.00 | 88 | 1013.4 |
| 20260831000535 | 62 | 205 | 0.0 | 0.0 | 0.00 | 0.00 | 0.00 | 88 | 1013.3 |
| 20260831000035 | 62 | 205 | 0.0 | 0.0 | 0.00 | 0.00 | 0.00 | 88 | 1013.4 |
| 20260830235534 | 62 | 205 | 0.0 | 0.0 | 0.00 | 0.00 | 0.00 | 87 | 1013.4 |
| 20260830235033 | 62 | 205 | 0.0 | 0.0 | 0.00 | 0.00 | 0.00 | 87 | 1013.4 |
| 20260830234533 | 62 | 205 | 0.0 | 0.0 | 0.00 | 0.00 | 0.00 | 87 | 1013.4 |
| 20260830234037 | 62 | 205 | 0.0 | 0.0 | 0.00 | 0.00 | 0.00 | 87 | 1013.4 |
| 20260830233534 | 63 | 205 | 0.0 | 0.0 | 0.00 | 0.00 | 0.00 | 87 | 1013.4 |
| 20260830233032 | 63 | 205 | 0.0 | 0.0 | 0.00 | 0.00 | 0.00 | 87 | 1013.5 |
| 20260830232532 | 63 | 205 | 0.0 | 0.0 | 0.00 | 0.00 | 0.00 | 87 | 1013.6 |
| 20260830232031 | 63 | 205 | 0.0 | 0.0 | 0.00 | 0.00 | 0.00 | 87 | 1013.5 |
| 20260830231531 | 63 | 205 | 0.0 | 0.0 | 0.00 | 0.00 | 0.00 | 87 | 1013.5 |
| 20260830230530 | 63 | 205 | 0.0 | 0.0 | 0.00 | 0.00 | 0.00 | 87 | 1013.5 |
| 20260830230033 | 63 | 205 | 0.0 | 0.0 | 0.00 | 0.00 | 0.00 | 87 | 1013.5 |
| 20260830225530 | 63 | 205 | 0.0 | 0.0 | 0.00 | 0.00 | 0.00 | 87 | 1013.5 |
| 20260830225030 | 63 | 205 | 0.0 | 0.0 | 0.00 | 0.00 | 0.00 | 87 | 1013.6 |
| 20260830224530 | 63 | 205 | 0.0 | 0.0 | 0.00 | 0.00 | 0.00 | 87 | 1013.6 |
| 20260830224030 | 63 | 205 | 0.0 | 0.0 | 0.00 | 0.00 | 0.00 | 87 | 1013.5 |
| 20260830223529 | 63 | 205 | 0.0 | 0.0 | 0.00 | 0.00 | 0.00 | 87 | 1013.5 |
| 20260830223028 | 63 | 205 | 0.0 | 0.0 | 0.00 | 0.00 | 0.00 | 86 | 1013.5 |
| 20260830222528 | 63 | 205 | 0.0 | 0.0 | 0.00 | 0.00 | 0.00 | 86 | 1013.5 |
| 20260830222028 | 63 | 205 | 0.0 | 0.0 | 0.00 | 0.00 | 0.00 | 86 | 1013.5 |
| 20260830221528 | 63 | 205 | 0.0 | 0.0 | 0.00 | 0.00 | 0.00 | 86 | 1013.5 |
| 20260830221027 | 63 | 205 | 0.0 | 0.0 | 0.00 | 0.00 | 0.00 | 86 | 1013.5 |
| 20260830220527 | 63 | 205 | 0.0 | 0.0 | 0.00 | 0.00 | 0.00 | 86 | 1013.5 |
| 20260830220033 | 63 | 205 | 0.0 | 0.0 | 0.00 | 0.00 | 0.00 | 86 | 1013.5 |
| 20260830215529 | 63 | 205 | 0.0 | 0.0 | 0.00 | 0.00 | 0.00 | 86 | 1013.5 |
| 20260830215025 | 63 | 205 | 0.0 | 0.0 | 0.00 | 0.00 | 0.00 | 85 | 1013.4 |
| 20260830214526 | 63 | 205 | 0.0 | 0.0 | 0.00 | 0.00 | 0.00 | 85 | 1013.4 |
| 20260830214025 | 63 | 205 | 0.0 | 0.0 | 0.00 | 0.00 | 0.00 | 85 | 1013.3 |
| 20260830213530 | 64 | 205 | 0.0 | 0.0 | 0.00 | 0.00 | 0.00 | 84 | 1013.4 |
| 20260830213024 | 64 | 205 | 0.0 | 0.0 | 0.00 | 0.00 | 0.00 | 84 | 1013.3 |
| 20260830212524 | 64 | 205 | 0.0 | 0.0 | 0.00 | 0.00 | 0.00 | 84 | 1013.3 |
| 20260830212024 | 64 | 205 | 0.0 | 0.0 | 0.00 | 0.00 | 0.00 | 84 | 1013.3 |
| 20260830211525 | 64 | 205 | 0.0 | 0.0 | 0.00 | 0.00 | 0.00 | 83 | 1013.3 |
| 20260830211025 | 64 | 205 | 0.0 | 0.0 | 0.00 | 0.00 | 0.00 | 83 | 1013.3 |
| 20260830210023 | 64 | 205 | 0.0 | 0.0 | 0.00 | 0.00 | 0.00 | 82 | 1013.2 |
| 20260830205527 | 65 | 205 | 0.0 | 0.0 | 0.00 | 0.00 | 0.00 | 81 | 1013.2 |
| 20260830205023 | 65 | 205 | 0.0 | 0.0 | 0.00 | 0.00 | 0.00 | 80 | 1013.1 |
| 20260830204532 | 66 | 205 | 0.0 | 0.0 | 0.00 | 0.00 | 0.00 | 79 | 1013.1 |
| 20260830204025 | 66 | 205 | 0.0 | 0.0 | 0.00 | 0.00 | 0.00 | 79 | 1013.1 |
| 20260830203523 | 66 | 205 | 0.0 | 0.0 | 0.00 | 0.00 | 0.00 | 78 | 1013.2 |
| 20260830203023 | 67 | 205 | 0.0 | 0.0 | 0.00 | 0.00 | 0.00 | 77 | 1013.2 |
| 20260830202524 | 67 | 205 | 0.0 | 0.0 | 0.00 | 0.00 | 0.00 | 76 | 1013.1 |
| 20260830202023 | 67 | 205 | 0.0 | 0.0 | 0.00 | 0.00 | 0.00 | 75 | 1013.2 |
| 20260830201523 | 68 | 205 | 0.0 | 0.0 | 0.00 | 0.00 | 0.00 | 75 | 1013.1 |
| 20260830201025 | 68 | 205 | 0.0 | 0.0 | 0.00 | 0.00 | 0.00 | 74 | 1013.1 |
| 20260830200525 | 68 | 205 | 0.0 | 0.0 | 0.00 | 0.00 | 0.00 | 74 | 1013.1 |
| 20260830200022 | 69 | 205 | 0.0 | 0.0 | 0.00 | 0.00 | 0.00 | 74 | 1013.1 |
| 20260830195522 | 69 | 205 | 0.0 | 0.0 | 0.00 | 0.00 | 0.00 | 73 | 1013.1 |
| 20260830195022 | 69 | 205 | 0.0 | 0.0 | 0.00 | 0.00 | 0.00 | 73 | 1013.1 |
| 20260830194522 | 70 | 205 | 0.0 | 0.0 | 0.00 | 0.00 | 0.00 | 72 | 1013.1 |
| 20260830194021 | 70 | 205 | 0.0 | 0.0 | 0.00 | 0.00 | 0.00 | 72 | 1013.1 |
| 20260830193522 | 70 | 205 | 0.0 | 0.0 | 0.00 | 0.00 | 0.00 | 72 | 1013.0 |
| 20260830193021 | 70 | 205 | 0.0 | 0.0 | 0.00 | 0.00 | 0.00 | 71 | 1013.0 |
| 20260830192521 | 70 | 205 | 0.0 | 0.0 | 0.00 | 0.00 | 0.00 | 71 | 1013.0 |
| 20260830192021 | 71 | 205 | 0.0 | 0.0 | 0.00 | 0.00 | 0.00 | 71 | 1013.0 |
| 20260830191521 | 71 | 205 | 0.0 | 0.0 | 0.00 | 0.00 | 0.00 | 71 | 1013.0 |
| 20260830191025 | 71 | 205 | 0.0 | 0.0 | 0.00 | 0.00 | 0.00 | 70 | 1012.9 |
| 20260830190521 | 71 | 205 | 0.0 | 0.0 | 0.00 | 0.00 | 0.00 | 69 | 1012.9 |
| 20260830190020 | 72 | 205 | 0.0 | 0.0 | 0.00 | 0.00 | 0.00 | 69 | 1012.9 |
| 20260830185521 | 72 | 205 | 0.0 | 0.0 | 0.00 | 0.00 | 0.00 | 68 | 1012.9 |
| 20260830185020 | 72 | 205 | 0.0 | 0.0 | 0.00 | 0.00 | 0.00 | 68 | 1012.9 |
| 20260830184520 | 72 | 205 | 0.0 | 0.0 | 0.00 | 0.00 | 0.00 | 67 | 1012.8 |
| 20260830184020 | 73 | 205 | 0.0 | 0.0 | 0.00 | 0.00 | 0.00 | 67 | 1012.8 |
| 20260830183519 | 73 | 205 | 0.0 | 0.0 | 0.00 | 0.00 | 0.00 | 67 | 1012.8 |
| 20260830183019 | 73 | 205 | 0.0 | 0.0 | 0.00 | 0.00 | 0.00 | 66 | 1012.7 |
| 20260830182520 | 73 | 205 | 0.0 | 0.0 | 0.00 | 0.00 | 0.00 | 65 | 1012.7 |
| 20260830182021 | 74 | 205 | 0.0 | 4.0 | 0.00 | 0.00 | 0.00 | 66 | 1012.7 |
| 20260830181519 | 74 | 205 | 0.0 | 2.0 | 0.00 | 0.00 | 0.00 | 65 | 1012.6 |
| 20260830181019 | 74 | 205 | 0.0 | 0.0 | 0.00 | 0.00 | 0.00 | 64 | 1012.6 |
| 20260830180518 | 74 | 205 | 0.0 | 0.0 | 0.00 | 0.00 | 0.00 | 64 | 1012.6 |
| 20260830180120 | 75 | 205 | 0.0 | 0.0 | 0.00 | 0.00 | 0.00 | 64 | 1012.6 |
| 20260830175519 | 75 | 205 | 0.0 | 0.0 | 0.00 | 0.00 | 0.00 | 63 | 1012.5 |
| 20260830175018 | 75 | 205 | 0.0 | 6.0 | 0.00 | 0.00 | 0.00 | 62 | 1012.4 |
| 20260830174537 | 75 | 205 | 0.0 | 6.0 | 0.00 | 0.00 | 0.00 | 61 | 1012.4 |
| 20260830174018 | 76 | 205 | 1.0 | 6.0 | 0.00 | 0.00 | 0.00 | 61 | 1012.3 |
| 20260830173522 | 76 | 206 | 3.0 | 6.0 | 0.00 | 0.00 | 0.00 | 60 | 1012.3 |
| 20260830173018 | 76 | 214 | 1.0 | 7.0 | 0.00 | 0.00 | 0.00 | 60 | 1012.3 |
| 20260830172518 | 76 | 201 | 3.0 | 7.0 | 0.00 | 0.00 | 0.00 | 59 | 1012.2 |
| 20260830172017 | 76 | 202 | 0.0 | 0.0 | 0.00 | 0.00 | 0.00 | 60 | 1012.2 |
| 20260830171521 | 77 | 200 | 0.0 | 0.0 | 0.00 | 0.00 | 0.00 | 59 | 1012.2 |
| 20260830171017 | 77 | 200 | 0.0 | 0.0 | 0.00 | 0.00 | 0.00 | 59 | 1012.1 |
| 20260830170517 | 77 | 200 | 0.0 | 0.0 | 0.00 | 0.00 | 0.00 | 59 | 1012.1 |
| 20260830170016 | 77 | 199 | 0.0 | 1.0 | 0.00 | 0.00 | 0.00 | 59 | 1012.1 |
| 20260830165516 | 77 | 203 | 0.0 | 5.0 | 0.00 | 0.00 | 0.00 | 58 | 1012.1 |
| 20260830165015 | 77 | 183 | 0.0 | 5.0 | 0.00 | 0.00 | 0.00 | 58 | 1012.2 |
| 20260830164519 | 77 | 203 | 0.0 | 0.0 | 0.00 | 0.00 | 0.00 | 58 | 1012.2 |
| 20260830164015 | 78 | 203 | 0.0 | 0.0 | 0.00 | 0.00 | 0.00 | 57 | 1012.2 |
| 20260830163515 | 78 | 203 | 0.0 | 6.0 | 0.00 | 0.00 | 0.00 | 56 | 1012.1 |
| 20260830163027 | 78 | 198 | 1.0 | 6.0 | 0.00 | 0.00 | 0.00 | 56 | 1012.1 |
| 20260830162515 | 78 | 223 | 1.0 | 6.0 | 0.00 | 0.00 | 0.00 | 55 | 1012.1 |
| 20260830162013 | 79 | 223 | 1.0 | 8.0 | 0.00 | 0.00 | 0.00 | 54 | 1012.2 |
| 20260830161514 | 79 | 203 | 1.0 | 8.0 | 0.00 | 0.00 | 0.00 | 54 | 1012.2 |
| 20260830161013 | 79 | 228 | 3.0 | 8.0 | 0.00 | 0.00 | 0.00 | 53 | 1012.2 |
| 20260830160512 | 80 | 219 | 3.0 | 10.0 | 0.00 | 0.00 | 0.00 | 52 | 1012.2 |
| 20260830160012 | 80 | 182 | 2.0 | 10.0 | 0.00 | 0.00 | 0.00 | 52 | 1012.2 |
| 20260830155013 | 80 | 185 | 3.0 | 11.0 | 0.00 | 0.00 | 0.00 | 52 | 1012.2 |
| 20260830154514 | 80 | 189 | 3.0 | 11.0 | 0.00 | 0.00 | 0.00 | 52 | 1012.2 |
| 20260830154010 | 80 | 200 | 2.0 | 14.0 | 0.00 | 0.00 | 0.00 | 52 | 1012.3 |
| 20260830153509 | 80 | 214 | 7.0 | 17.0 | 0.00 | 0.00 | 0.00 | 51 | 1012.3 |
| 20260830153110 | 80 | 210 | 7.0 | 17.0 | 0.00 | 0.00 | 0.00 | 50 | 1012.3 |
| 20260830152509 | 80 | 223 | 9.0 | 16.0 | 0.00 | 0.00 | 0.00 | 50 | 1012.3 |
| 20260830152009 | 80 | 236 | 7.0 | 16.0 | 0.00 | 0.00 | 0.00 | 49 | 1012.4 |
| 20260830151523 | 80 | 177 | 11.0 | 16.0 | 0.00 | 0.00 | 0.00 | 49 | 1012.4 |
| 20260830151008 | 80 | 192 | 6.0 | 21.0 | 0.00 | 0.00 | 0.00 | 49 | 1012.5 |
| 20260830150507 | 81 | 180 | 9.0 | 21.0 | 0.00 | 0.00 | 0.00 | 48 | 1012.4 |
| 20260830150007 | 81 | 175 | 6.0 | 17.0 | 0.00 | 0.00 | 0.00 | 48 | 1012.4 |
| 20260830145511 | 81 | 219 | 7.0 | 22.0 | 0.00 | 0.00 | 0.00 | 48 | 1012.4 |
| 20260830145006 | 81 | 221 | 8.0 | 22.0 | 0.00 | 0.00 | 0.00 | 48 | 1012.4 |
| 20260830144507 | 81 | 200 | 12.0 | 21.0 | 0.00 | 0.00 | 0.00 | 47 | 1012.4 |
| 20260830144006 | 82 | 196 | 11.0 | 22.0 | 0.00 | 0.00 | 0.00 | 46 | 1012.4 |
| 20260830143507 | 82 | 191 | 7.0 | 22.0 | 0.00 | 0.00 | 0.00 | 48 | 1012.4 |
| 20260830143006 | 83 | 204 | 10.0 | 17.0 | 0.00 | 0.00 | 0.00 | 46 | 1012.4 |
| 20260830142505 | 83 | 215 | 5.0 | 25.0 | 0.00 | 0.00 | 0.00 | 46 | 1012.5 |
| 20260830142007 | 82 | 239 | 9.0 | 18.0 | 0.00 | 0.00 | 0.00 | 47 | 1012.6 |
| 20260830141504 | 82 | 199 | 10.0 | 22.0 | 0.00 | 0.00 | 0.00 | 47 | 1012.6 |
| 20260830141003 | 82 | 260 | 9.0 | 22.0 | 0.00 | 0.00 | 0.00 | 47 | 1012.6 |
| 20260830140501 | 82 | 222 | 10.0 | 25.0 | 0.00 | 0.00 | 0.00 | 46 | 1012.7 |
| 20260830140001 | 82 | 232 | 10.0 | 25.0 | 0.00 | 0.00 | 0.00 | 46 | 1012.7 |
| 20260830135502 | 82 | 221 | 14.0 | 28.0 | 0.00 | 0.00 | 0.00 | 46 | 1012.7 |
| 20260830134601 | 82 | 232 | 12.0 | 28.0 | 0.00 | 0.00 | 0.00 | 47 | 1012.8 |
| 20260830134100 | 81 | 261 | 10.0 | 25.0 | 0.00 | 0.00 | 0.00 | 47 | 1012.7 |
| 20260830133601 | 81 | 201 | 10.0 | 22.0 | 0.00 | 0.00 | 0.00 | 48 | 1012.7 |
| 20260830133059 | 81 | 250 | 10.0 | 17.0 | 0.00 | 0.00 | 0.00 | 47 | 1012.7 |
| 20260830132559 | 80 | 221 | 8.0 | 22.0 | 0.00 | 0.00 | 0.00 | 48 | 1012.7 |
| 20260830132059 | 81 | 239 | 14.0 | 22.0 | 0.00 | 0.00 | 0.00 | 46 | 1012.8 |
| 20260830131609 | 82 | 238 | 12.0 | 26.0 | 0.00 | 0.00 | 0.00 | 45 | 1012.8 |
| 20260830131100 | 82 | 252 | 10.0 | 26.0 | 0.00 | 0.00 | 0.00 | 45 | 1012.8 |
| 20260830130558 | 82 | 220 | 13.0 | 26.0 | 0.00 | 0.00 | 0.00 | 46 | 1012.8 |
| 20260830130059 | 82 | 227 | 13.0 | 25.0 | 0.00 | 0.00 | 0.00 | 46 | 1012.8 |
| 20260830125558 | 82 | 227 | 6.0 | 26.0 | 0.00 | 0.00 | 0.00 | 48 | 1012.8 |
| 20260830125055 | 81 | 172 | 13.0 | 27.0 | 0.00 | 0.00 | 0.00 | 47 | 1012.8 |
| 20260830124555 | 81 | 209 | 7.0 | 24.0 | 0.00 | 0.00 | 0.00 | 48 | 1012.8 |
| 20260830124059 | 81 | 178 | 12.0 | 32.0 | 0.00 | 0.00 | 0.00 | 48 | 1012.8 |
| 20260830123555 | 81 | 224 | 12.0 | 21.0 | 0.00 | 0.00 | 0.00 | 48 | 1012.9 |
| 20260830123057 | 81 | 201 | 11.0 | 23.0 | 0.00 | 0.00 | 0.00 | 47 | 1012.9 |
| 20260830122555 | 81 | 157 | 11.0 | 26.0 | 0.00 | 0.00 | 0.00 | 49 | 1012.9 |
| 20260830122052 | 81 | 185 | 12.0 | 25.0 | 0.00 | 0.00 | 0.00 | 48 | 1012.9 |
| 20260830121553 | 81 | 220 | 14.0 | 30.0 | 0.00 | 0.00 | 0.00 | 48 | 1012.9 |
| 20260830121053 | 81 | 163 | 12.0 | 24.0 | 0.00 | 0.00 | 0.00 | 47 | 1013.0 |
| 20260830120650 | 81 | 168 | 9.0 | 28.0 | 0.00 | 0.00 | 0.00 | 48 | 1013.0 |
| 20260830120053 | 81 | 229 | 15.0 | 28.0 | 0.00 | 0.00 | 0.00 | 48 | 1013.1 |
| 20260830115548 | 80 | 196 | 12.0 | 25.0 | 0.00 | 0.00 | 0.00 | 50 | 1013.1 |
| 20260830115047 | 80 | 214 | 13.0 | 25.0 | 0.00 | 0.00 | 0.00 | 49 | 1013.2 |
| 20260830114051 | 80 | 178 | 13.0 | 25.0 | 0.00 | 0.00 | 0.00 | 50 | 1013.3 |
| 20260830113546 | 80 | 227 | 12.0 | 24.0 | 0.00 | 0.00 | 0.00 | 50 | 1013.3 |
| 20260830113051 | 80 | 205 | 14.0 | 24.0 | 0.00 | 0.00 | 0.00 | 50 | 1013.4 |
| 20260830112545 | 80 | 215 | 12.0 | 20.0 | 0.00 | 0.00 | 0.00 | 50 | 1013.5 |
| 20260830112044 | 80 | 209 | 9.0 | 20.0 | 0.00 | 0.00 | 0.00 | 49 | 1013.5 |
| 20260830111544 | 80 | 225 | 11.0 | 20.0 | 0.00 | 0.00 | 0.00 | 50 | 1013.4 |
| 20260830111043 | 80 | 171 | 8.0 | 20.0 | 0.00 | 0.00 | 0.00 | 50 | 1013.5 |
| 20260830110543 | 80 | 186 | 10.0 | 23.0 | 0.00 | 0.00 | 0.00 | 48 | 1013.5 |
| 20260830110045 | 79 | 232 | 10.0 | 23.0 | 0.00 | 0.00 | 0.00 | 51 | 1013.6 |
| 20260830105540 | 79 | 186 | 13.0 | 25.0 | 0.00 | 0.00 | 0.00 | 51 | 1013.5 |
| 20260830105041 | 79 | 166 | 11.0 | 23.0 | 0.00 | 0.00 | 0.00 | 52 | 1013.6 |
| 20260830104538 | 79 | 181 | 9.0 | 23.0 | 0.00 | 0.00 | 0.00 | 50 | 1013.6 |
| 20260830104038 | 79 | 178 | 8.0 | 28.0 | 0.00 | 0.00 | 0.00 | 53 | 1013.8 |
| 20260830103537 | 78 | 164 | 13.0 | 30.0 | 0.00 | 0.00 | 0.00 | 52 | 1013.9 |
| 20260830103039 | 78 | 211 | 18.0 | 30.0 | 0.00 | 0.00 | 0.00 | 51 | 1013.9 |
| 20260830102535 | 78 | 233 | 12.0 | 26.0 | 0.00 | 0.00 | 0.00 | 52 | 1013.9 |
| 20260830102035 | 78 | 194 | 13.0 | 26.0 | 0.00 | 0.00 | 0.00 | 53 | 1014.0 |
| 20260830101541 | 79 | 185 | 11.0 | 27.0 | 0.00 | 0.00 | 0.00 | 53 | 1014.0 |